Terminal Aerodrome Forecast
Issued by NWS Omaha/Valley, NE

Home | Current Version | Previous Version | Graphics & Text | Print | Product List | Glossary On
Versions: 1 2 3 4 5 6 7 8 9 10 11 12 13 14 15 16 17 18 19 20 21 22 23 24 25 26 27 28 29 30 31 32 33 34 35 36 37 38 39 40 41
000
FTUS43 KOAX 152126 AAB
TAFOFK
TAF AMD
KOFK 152126Z 1521/1618 33023G36KT 3SM -SN SCT008 OVC014
      TEMPO 1521/1523 1 1/2SM -SN
     FM160300 34025G35KT P6SM OVC012
     FM161300 33018G24KT P6SM SCT020 OVC250=

USA.gov is the U.S. government's official web portal to all federal, state and local government web resources and services.